Location: Banff
(51.1667°N, 115.5667°W)
Time: 14:29:38
(UTC+00:00)

deb Explorer IX - Visible Passes

Search period start: 12 May 2021 00:00
Search period end: 22 May 2021 00:00
Orbit: 541 x 1098 km, 38.8° (Epoch: 11 May)

Date Brightness Start Highest point End Pass type
(mag) Time Alt. Az. Time Alt. Az. Time Alt. Az.
12 May ? 05:42:42 10° SSW 05:43:11 11° SSW 05:43:11 11° SSW visible
13 May ? 05:18:39 10° SSW 05:22:18 18° S 05:22:18 18° S visible
14 May ? 04:54:37 10° SSW 04:58:59 19° SSE 05:00:56 16° SE visible
14 May ? 06:40:08 10° SW 06:42:15 18° SW 06:42:15 18° SW visible
15 May ? 04:30:34 10° SSW 04:35:09 19° SSE 04:39:09 11° ESE visible
15 May ? 06:16:08 10° SW 06:20:26 24° SSW 06:20:26 24° SSW visible
16 May ? 04:06:32 10° SSW 04:11:19 20° SSE 04:15:44 10° ESE visible
16 May ? 05:52:07 10° SW 05:57:23 26° S 05:58:17 25° SSE visible
16 May ? 07:39:07 10° WSW 07:39:33 11° WSW 07:39:33 11° WSW visible
17 May ? 05:28:06 10° SW 05:33:33 26° S 05:35:53 21° SSE visible
17 May ? 07:15:05 10° WSW 07:17:09 16° SW 07:17:09 16° SW visible
18 May ? 05:04:05 10° SW 05:09:42 27° S 05:13:21 16° SE visible
18 May ? 06:51:04 10° WSW 06:54:35 20° SSW 06:54:35 20° SSW visible
19 May ? 04:40:05 10° SW 04:45:51 28° S 04:50:42 12° SE visible
19 May ? 06:27:02 10° WSW 06:31:53 22° SSW 06:31:56 22° SSW visible
20 May ? 04:16:04 10° SW 04:21:58 28° S 04:27:24 10° ESE visible
20 May ? 06:03:00 10° WSW 06:08:02 22° SSW 06:09:12 21° S visible
21 May ? 05:38:59 10° WSW 05:44:12 23° SSW 05:46:26 19° S visible
